Time,TemperatureF,DewpointF,PressureIn,WindDirection,WindDirectionDegrees,WindSpeedMPH,WindSpeedGustMPH,Humidity,HourlyPrecipIn,Conditions,Clouds,dailyrainin,SoftwareType,DateUTC
2013-03-27 00:00:00,29.8,22.6,29.84,NW,310,0.0,0.0,74,0.00,,,0.00,meteohub,2013-03-27 04:00:00,
2013-03-27 00:01:00,29.8,22.8,29.84,NW,310,0.0,0.0,75,0.00,,,0.00,meteohub,2013-03-27 04:01:00,
2013-03-27 00:06:00,29.7,22.6,29.84,NW,310,0.0,0.0,75,0.00,,,0.00,meteohub,2013-03-27 04:06:00,
2013-03-27 00:11:00,29.5,22.5,29.84,NW,310,0.0,0.0,75,0.00,,,0.00,meteohub,2013-03-27 04:11:00,
2013-03-27 00:16:00,29.3,22.6,29.84,NW,310,0.0,0.0,76,0.00,,,0.00,meteohub,2013-03-27 04:16:00,
2013-03-27 00:21:00,29.1,22.5,29.84,NW,310,0.0,0.0,76,0.00,,,0.00,meteohub,2013-03-27 04:21:00,
2013-03-27 00:26:00,28.9,22.6,29.84,NW,310,0.0,0.0,77,0.00,,,0.00,meteohub,2013-03-27 04:26:00,
2013-03-27 00:31:00,28.8,22.5,29.84,NW,310,0.0,0.0,77,0.00,,,0.00,meteohub,2013-03-27 04:31:00,
2013-03-27 00:37:00,28.8,22.8,29.84,NW,310,0.0,0.0,78,0.00,,,0.00,meteohub,2013-03-27 04:37:00,
2013-03-27 00:42:00,28.6,22.6,29.84,NW,310,0.0,0.0,78,0.00,,,0.00,meteohub,2013-03-27 04:42:00,
2013-03-27 00:47:00,28.6,22.6,29.84,NW,310,0.0,0.0,78,0.00,,,0.00,meteohub,2013-03-27 04:47:00,
2013-03-27 00:52:00,28.4,22.5,29.84,NW,310,0.0,0.0,78,0.00,,,0.00,meteohub,2013-03-27 04:52:00,
2013-03-27 00:57:00,28.2,22.6,29.84,NW,310,0.0,0.0,79,0.00,,,0.00,meteohub,2013-03-27 04:57:00,
2013-03-27 01:02:00,28.2,22.6,29.84,NW,310,0.0,0.0,79,0.00,,,0.00,meteohub,2013-03-27 05:02:00,
2013-03-27 01:07:00,28.0,22.6,29.84,NW,310,0.0,0.0,80,0.00,,,0.00,meteohub,2013-03-27 05:07:00,
2013-03-27 01:12:00,27.9,22.8,29.84,NW,310,0.0,0.0,81,0.00,,,0.00,meteohub,2013-03-27 05:12:00,
2013-03-27 01:17:00,27.9,23.0,29.84,NW,310,0.0,0.0,82,0.00,,,0.00,meteohub,2013-03-27 05:17:00,
2013-03-27 01:22:00,27.7,22.6,29.84,NW,310,0.0,0.0,81,0.00,,,0.00,meteohub,2013-03-27 05:22:00,
2013-03-27 01:27:00,27.5,22.8,29.84,NW,310,0.0,0.0,82,0.00,,,0.00,meteohub,2013-03-27 05:27:00,
2013-03-27 01:32:00,27.3,22.6,29.84,NW,310,0.0,0.0,82,0.00,,,0.00,meteohub,2013-03-27 05:32:00,
2013-03-27 01:37:00,27.3,22.6,29.84,NW,310,0.0,0.0,82,0.00,,,0.00,meteohub,2013-03-27 05:37:00,
2013-03-27 01:42:00,27.3,22.6,29.84,NW,310,0.0,0.0,82,0.00,,,0.00,meteohub,2013-03-27 05:42:00,
2013-03-27 01:47:00,27.1,22.6,29.84,NW,310,0.0,0.0,83,0.00,,,0.00,meteohub,2013-03-27 05:47:00,
2013-03-27 01:53:00,27.1,22.6,29.84,NW,310,0.0,0.0,83,0.00,,,0.00,meteohub,2013-03-27 05:53:00,
2013-03-27 01:58:00,27.1,22.6,29.84,NW,310,0.0,0.0,83,0.00,,,0.00,meteohub,2013-03-27 05:58:00,
2013-03-27 02:03:00,27.0,22.5,29.84,NW,310,0.0,0.0,83,0.00,,,0.00,meteohub,2013-03-27 06:03:00,
2013-03-27 02:08:00,27.0,22.5,29.84,NW,310,0.0,0.0,83,0.00,,,0.00,meteohub,2013-03-27 06:08:00,
2013-03-27 02:13:00,27.0,22.5,29.84,NW,310,0.0,0.0,83,0.00,,,0.00,meteohub,2013-03-27 06:13:00,
2013-03-27 02:18:00,26.8,22.6,29.84,NW,310,0.0,0.0,84,0.00,,,0.00,meteohub,2013-03-27 06:18:00,
2013-03-27 02:23:00,26.8,22.6,29.84,NW,310,0.0,0.0,84,0.00,,,0.00,meteohub,2013-03-27 06:23:00,
2013-03-27 02:28:00,26.8,22.6,29.83,NW,310,0.0,0.0,84,0.00,,,0.00,meteohub,2013-03-27 06:28:00,
2013-03-27 02:33:00,26.6,22.6,29.84,NW,310,0.0,0.0,85,0.00,,,0.00,meteohub,2013-03-27 06:33:00,
2013-03-27 02:38:00,26.4,22.5,29.83,NW,310,0.0,0.0,85,0.00,,,0.00,meteohub,2013-03-27 06:38:00,
2013-03-27 02:43:00,26.4,22.5,29.83,NW,310,0.0,0.0,85,0.00,,,0.00,meteohub,2013-03-27 06:43:00,
2013-03-27 02:48:00,26.4,22.5,29.83,NW,310,0.0,0.0,85,0.00,,,0.00,meteohub,2013-03-27 06:48:00,
2013-03-27 02:53:00,26.4,22.5,29.83,NW,310,0.0,0.0,85,0.00,,,0.00,meteohub,2013-03-27 06:53:00,
2013-03-27 02:58:00,26.4,22.5,29.83,NW,310,0.0,0.0,85,0.00,,,0.00,meteohub,2013-03-27 06:58:00,
2013-03-27 03:04:00,26.4,22.5,29.83,NW,310,0.0,0.0,85,0.00,,,0.00,meteohub,2013-03-27 07:04:00,
2013-03-27 03:09:00,26.4,22.5,29.83,NW,310,0.0,0.0,85,0.00,,,0.00,meteohub,2013-03-27 07:09:00,
2013-03-27 03:14:00,26.4,22.5,29.83,NW,310,0.0,0.0,85,0.00,,,0.00,meteohub,2013-03-27 07:14:00,
2013-03-27 03:19:00,26.6,22.6,29.83,NW,310,0.0,0.0,85,0.00,,,0.00,meteohub,2013-03-27 07:19:00,
2013-03-27 03:24:00,26.8,22.6,29.83,NW,310,0.0,0.0,84,0.00,,,0.00,meteohub,2013-03-27 07:24:00,
2013-03-27 03:29:00,26.8,22.6,29.83,NW,310,0.0,0.0,84,0.00,,,0.00,meteohub,2013-03-27 07:29:00,
2013-03-27 03:34:00,26.6,22.5,29.83,NW,310,0.0,0.0,84,0.00,,,0.00,meteohub,2013-03-27 07:34:00,
2013-03-27 03:39:00,26.8,22.8,29.83,NW,310,0.0,0.0,85,0.00,,,0.00,meteohub,2013-03-27 07:39:00,
2013-03-27 03:44:00,28.0,23.2,29.84,NW,310,0.0,0.0,82,0.00,,,0.00,meteohub,2013-03-27 07:44:00,
2013-03-27 03:49:00,28.4,23.4,29.83,NW,310,0.0,0.0,81,0.00,,,0.00,meteohub,2013-03-27 07:49:00,
2013-03-27 03:54:00,28.6,23.2,29.84,NW,310,0.0,0.0,80,0.00,,,0.00,meteohub,2013-03-27 07:54:00,
2013-03-27 03:59:00,28.8,23.0,29.84,NW,310,0.0,0.0,79,0.00,,,0.00,meteohub,2013-03-27 07:59:00,
2013-03-27 04:04:00,30.0,23.4,29.83,NW,310,0.0,0.0,76,0.00,,,0.00,meteohub,2013-03-27 08:04:00,
2013-03-27 04:09:00,31.3,23.7,29.84,NW,310,0.0,0.0,73,0.00,,,0.00,meteohub,2013-03-27 08:09:00,
2013-03-27 04:15:00,31.8,23.9,29.83,NW,310,0.0,0.0,72,0.00,,,0.00,meteohub,2013-03-27 08:15:00,
2013-03-27 04:20:00,31.8,23.5,29.83,NW,310,0.0,0.0,71,0.00,,,0.00,meteohub,2013-03-27 08:20:00,
2013-03-27 04:25:00,32.2,23.5,29.83,NW,310,0.0,0.0,70,0.00,,,0.00,meteohub,2013-03-27 08:25:00,
2013-03-27 04:30:00,32.4,23.0,29.84,NW,310,0.0,0.0,68,0.00,,,0.00,meteohub,2013-03-27 08:30:00,
2013-03-27 04:35:00,32.7,23.4,29.83,NW,310,0.0,0.0,68,0.00,,,0.00,meteohub,2013-03-27 08:35:00,
2013-03-27 04:40:00,32.9,23.2,29.83,NW,310,0.0,0.0,67,0.00,,,0.00,meteohub,2013-03-27 08:40:00,
2013-03-27 04:45:00,33.1,23.4,29.84,NW,310,0.0,0.0,67,0.00,,,0.00,meteohub,2013-03-27 08:45:00,
2013-03-27 04:50:00,32.9,22.8,29.84,NW,310,0.0,0.0,66,0.00,,,0.05,meteohub,2013-03-27 08:50:00,
2013-03-27 04:55:00,33.1,23.0,29.84,NW,310,0.0,0.0,66,0.05,,,0.25,meteohub,2013-03-27 08:55:00,
2013-03-27 05:00:00,32.7,23.0,29.84,NW,310,0.0,0.0,67,1.15,,,1.15,meteohub,2013-03-27 09:00:00,
2013-03-27 05:05:00,32.5,22.8,29.84,NW,310,0.0,0.0,67,2.71,,,2.59,meteohub,2013-03-27 09:05:00,
2013-03-27 05:10:00,32.5,22.8,29.84,NW,310,0.0,0.0,67,3.43,,,3.43,meteohub,2013-03-27 09:10:00,
2013-03-27 05:15:00,32.4,22.6,29.84,NW,310,0.0,0.0,67,4.87,,,4.87,meteohub,2013-03-27 09:15:00,
2013-03-27 05:20:00,32.0,22.6,29.84,NW,310,0.0,0.0,68,5.51,,,5.51,meteohub,2013-03-27 09:20:00,
2013-03-27 05:25:00,31.6,22.6,29.84,NW,310,0.0,0.0,69,6.50,,,6.50,meteohub,2013-03-27 09:25:00,
2013-03-27 05:30:00,31.5,22.5,29.85,NW,310,0.0,0.0,69,6.50,,,6.50,meteohub,2013-03-27 09:30:00,
2013-03-27 05:35:00,30.9,21.9,29.85,NW,310,0.0,0.0,69,6.50,,,6.50,meteohub,2013-03-27 09:35:00,
2013-03-27 05:40:00,30.7,22.1,29.85,NW,310,0.0,0.0,70,6.50,,,6.50,meteohub,2013-03-27 09:40:00,
2013-03-27 05:45:00,30.6,22.6,29.85,NW,310,0.0,0.0,72,6.50,,,6.50,meteohub,2013-03-27 09:45:00,
2013-03-27 05:51:00,30.0,21.7,29.85,NW,310,0.0,0.0,71,6.44,,,6.50,meteohub,2013-03-27 09:51:00,
2013-03-27 05:56:00,29.8,21.9,29.85,NW,310,0.0,0.0,72,5.97,,,6.50,meteohub,2013-03-27 09:56:00,
2013-03-27 06:01:00,29.5,21.6,29.85,NW,310,0.0,0.0,72,4.87,,,6.50,meteohub,2013-03-27 10:01:00,
2013-03-27 06:06:00,29.3,21.7,29.86,NW,310,0.0,0.0,73,3.67,,,6.50,meteohub,2013-03-27 10:06:00,
2013-03-27 06:11:00,28.9,21.4,29.86,NW,310,0.0,0.0,73,2.59,,,6.50,meteohub,2013-03-27 10:11:00,
2013-03-27 06:16:00,28.8,21.6,29.86,NW,310,0.0,0.0,74,1.39,,,6.50,meteohub,2013-03-27 10:16:00,
2013-03-27 06:21:00,28.6,21.4,29.86,NW,310,0.0,0.0,74,0.23,,,6.50,meteohub,2013-03-27 10:21:00,
2013-03-27 06:27:00,28.2,21.4,29.86,NW,310,0.0,0.0,75,0.00,,,6.50,meteohub,2013-03-27 10:27:00,
2013-03-27 06:32:00,28.2,21.4,29.86,NW,310,0.0,0.0,75,0.00,,,6.50,meteohub,2013-03-27 10:32:00,
2013-03-27 06:37:00,28.9,22.1,29.86,NW,310,0.0,0.0,75,0.00,,,6.50,meteohub,2013-03-27 10:37:00,
2013-03-27 06:42:00,29.8,22.3,29.86,NW,310,0.0,0.0,73,0.00,,,6.50,meteohub,2013-03-27 10:42:00,
2013-03-27 06:47:00,30.4,22.5,29.86,NW,310,0.0,0.0,72,0.00,,,6.50,meteohub,2013-03-27 10:47:00,
2013-03-27 06:52:00,30.6,22.3,29.87,NW,310,0.0,0.0,71,0.00,,,6.50,meteohub,2013-03-27 10:52:00,
2013-03-27 06:57:00,30.6,22.6,29.87,NW,310,0.0,0.0,72,0.00,,,6.50,meteohub,2013-03-27 10:57:00,
2013-03-27 07:02:00,30.6,22.3,29.87,NW,310,0.0,0.0,71,0.00,,,6.50,meteohub,2013-03-27 11:02:00,
2013-03-27 07:08:00,30.4,22.8,29.87,NW,310,0.0,0.0,73,0.00,,,6.50,meteohub,2013-03-27 11:08:00,
2013-03-27 07:13:00,30.0,22.5,29.87,NW,310,0.0,0.0,73,0.00,,,6.50,meteohub,2013-03-27 11:13:00,
2013-03-27 07:18:00,30.0,22.8,29.87,NW,310,0.0,0.0,74,0.00,,,6.50,meteohub,2013-03-27 11:18:00,
2013-03-27 07:23:00,30.2,23.0,29.87,NW,310,0.0,0.0,74,0.00,,,6.50,meteohub,2013-03-27 11:23:00,
2013-03-27 07:28:00,30.6,23.2,29.87,NW,310,0.0,0.0,74,0.01,,,6.51,meteohub,2013-03-27 11:28:00,
2013-03-27 07:33:00,31.3,23.7,29.87,NW,310,0.0,0.0,73,0.62,,,7.12,meteohub,2013-03-27 11:33:00,
2013-03-27 07:38:00,32.4,24.1,29.87,NW,310,0.0,0.0,71,2.10,,,8.60,meteohub,2013-03-27 11:38:00,
2013-03-27 07:43:00,32.9,24.3,29.87,NW,310,0.0,0.0,70,2.74,,,9.24,meteohub,2013-03-27 11:43:00,
2013-03-27 07:48:00,33.4,24.8,29.88,NW,310,0.0,0.0,70,4.22,,,10.72,meteohub,2013-03-27 11:48:00,
2013-03-27 07:53:00,34.2,25.0,29.88,NW,310,0.0,0.0,69,5.62,,,12.12,meteohub,2013-03-27 11:53:00,
2013-03-27 07:58:00,35.1,25.5,29.88,NW,310,0.0,0.0,68,6.38,,,12.88,meteohub,2013-03-27 11:58:00,
2013-03-27 08:03:00,36.0,25.7,29.88,NW,310,0.0,0.0,66,7.53,,,14.03,meteohub,2013-03-27 12:03:00,
2013-03-27 08:09:00,37.0,26.1,29.88,NW,310,0.0,0.0,64,7.53,,,14.03,meteohub,2013-03-27 12:09:00,
2013-03-27 08:14:00,37.9,26.1,29.88,NW,310,0.0,0.0,62,7.55,,,14.05,meteohub,2013-03-27 12:14:00,
2013-03-27 08:19:00,38.7,26.8,29.88,NW,310,0.0,0.0,62,8.80,,,14.53,meteohub,2013-03-27 12:19:00,
2013-03-27 08:24:00,39.4,26.2,29.88,NW,310,0.0,0.0,59,9.40,,,15.90,meteohub,2013-03-27 12:24:00,
2013-03-27 08:29:00,39.7,27.0,29.88,NW,310,0.0,0.0,60,10.98,,,17.50,meteohub,2013-03-27 12:29:00,
2013-03-27 08:34:00,40.5,27.7,29.88,NW,310,0.0,0.0,60,10.62,,,18.26,meteohub,2013-03-27 12:34:00,
2013-03-27 08:39:00,40.8,26.8,29.88,NW,310,0.0,0.0,57,10.86,,,19.74,meteohub,2013-03-27 12:39:00,
2013-03-27 08:44:00,41.0,27.3,29.88,NW,310,0.0,0.0,58,10.38,,,20.38,meteohub,2013-03-27 12:44:00,
2013-03-27 08:49:00,41.5,27.5,29.88,NW,310,0.0,0.0,57,10.70,,,21.94,meteohub,2013-03-27 12:49:00,
2013-03-27 08:54:00,41.7,27.7,29.88,NW,310,0.0,0.0,57,10.94,,,23.30,meteohub,2013-03-27 12:54:00,
2013-03-27 08:59:00,42.3,28.6,29.88,NW,310,0.0,0.0,58,10.58,,,24.06,meteohub,2013-03-27 12:59:00,
2013-03-27 09:04:00,42.3,28.6,29.88,NW,310,0.0,0.0,58,11.27,,,25.30,meteohub,2013-03-27 13:04:00,
2013-03-27 09:10:00,43.0,29.3,29.88,NW,310,0.0,0.0,58,11.27,,,26.13,meteohub,2013-03-27 13:10:00,
2013-03-27 09:15:00,43.5,29.3,29.88,NW,310,0.0,0.0,57,10.71,,,26.13,meteohub,2013-03-27 13:15:00,
2013-03-27 09:20:00,43.9,28.4,29.88,NW,310,0.0,0.0,54,9.59,,,26.13,meteohub,2013-03-27 13:20:00,
2013-03-27 09:25:00,44.1,28.9,29.88,NW,310,0.0,0.0,55,8.51,,,26.13,meteohub,2013-03-27 13:25:00,
2013-03-27 09:30:00,44.4,29.7,29.88,NW,310,0.0,0.0,56,7.39,,,26.13,meteohub,2013-03-27 13:30:00,
2013-03-27 09:35:00,44.6,29.5,29.88,NW,310,0.0,0.0,55,6.15,,,26.13,meteohub,2013-03-27 13:35:00,
2013-03-27 09:40:00,45.0,30.2,29.88,NW,310,0.0,0.0,56,4.91,,,26.13,meteohub,2013-03-27 13:40:00,
2013-03-27 09:45:00,45.5,29.8,29.88,NW,310,0.0,0.0,54,3.79,,,26.13,meteohub,2013-03-27 13:45:00,
2013-03-27 09:50:00,46.4,31.1,29.88,NW,310,0.0,0.0,55,2.55,,,26.13,meteohub,2013-03-27 13:50:00,
2013-03-27 09:56:00,46.4,28.8,29.88,NW,310,0.0,0.0,50,1.43,,,26.13,meteohub,2013-03-27 13:56:00,
2013-03-27 10:01:00,46.2,29.1,29.88,NW,310,0.0,0.0,51,0.83,,,26.13,meteohub,2013-03-27 14:01:00,
2013-03-27 10:06:00,46.4,29.7,29.88,NW,310,0.0,0.0,52,0.37,,,26.13,meteohub,2013-03-27 14:06:00,
2013-03-27 10:11:00,46.6,30.4,29.88,NW,310,0.0,0.0,53,0.00,,,26.13,meteohub,2013-03-27 14:11:00,
2013-03-27 10:16:00,46.9,30.2,29.88,NW,310,0.0,0.0,52,0.00,,,26.13,meteohub,2013-03-27 14:16:00,
2013-03-27 10:21:00,47.1,29.5,29.88,NW,310,0.0,0.0,50,0.00,,,26.13,meteohub,2013-03-27 14:21:00,
2013-03-27 10:26:00,47.8,31.1,29.88,NW,310,0.0,0.0,52,0.00,,,26.13,meteohub,2013-03-27 14:26:00,
2013-03-27 10:32:00,48.2,30.4,29.88,NW,310,0.0,0.0,50,0.00,,,26.13,meteohub,2013-03-27 14:32:00,
2013-03-27 10:37:00,48.4,30.0,29.87,NW,310,0.0,0.0,49,0.00,,,26.13,meteohub,2013-03-27 14:37:00,
2013-03-27 10:42:00,48.7,30.9,29.88,NW,310,0.0,0.0,50,0.00,,,26.13,meteohub,2013-03-27 14:42:00,
2013-03-27 10:47:00,48.7,30.4,29.87,NW,310,0.0,0.0,49,0.00,,,26.13,meteohub,2013-03-27 14:47:00,
2013-03-27 10:52:00,49.5,30.6,29.87,NW,310,0.0,0.0,48,0.00,,,26.13,meteohub,2013-03-27 14:52:00,
2013-03-27 10:57:00,49.6,30.2,29.87,NW,310,0.0,0.0,47,0.00,,,26.13,meteohub,2013-03-27 14:57:00,
2013-03-27 11:02:00,49.6,30.2,29.87,NW,310,0.0,0.0,47,0.00,,,26.13,meteohub,2013-03-27 15:02:00,
2013-03-27 11:07:00,50.0,29.5,29.87,NW,310,0.0,0.0,45,0.00,,,26.13,meteohub,2013-03-27 15:07:00,
2013-03-27 11:12:00,49.5,28.4,29.87,NW,310,0.0,0.0,44,0.00,,,26.13,meteohub,2013-03-27 15:12:00,
2013-03-27 11:17:00,49.8,28.2,29.87,NW,310,0.0,0.0,43,0.00,,,26.13,meteohub,2013-03-27 15:17:00,
2013-03-27 11:23:00,50.2,28.0,29.87,NW,310,0.0,0.0,42,0.00,,,26.13,meteohub,2013-03-27 15:23:00,
2013-03-27 11:28:00,49.5,28.4,29.87,NW,310,0.0,0.0,44,0.00,,,26.13,meteohub,2013-03-27 15:28:00,
2013-03-27 11:33:00,49.1,27.0,29.86,NW,310,0.0,0.0,42,0.00,,,26.13,meteohub,2013-03-27 15:33:00,
2013-03-27 11:38:00,49.6,29.1,29.86,NW,310,0.0,0.0,45,0.00,,,26.13,meteohub,2013-03-27 15:38:00,
2013-03-27 11:43:00,50.0,26.1,29.86,NW,310,0.0,0.0,39,0.00,,,26.13,meteohub,2013-03-27 15:43:00,
2013-03-27 11:48:00,49.5,27.3,29.86,NW,310,0.0,0.0,42,0.00,,,26.13,meteohub,2013-03-27 15:48:00,
2013-03-27 11:53:00,49.8,29.3,29.85,NW,310,0.0,0.0,45,0.00,,,26.13,meteohub,2013-03-27 15:53:00,
2013-03-27 11:58:00,51.3,29.5,29.85,NW,310,0.0,0.0,43,0.00,,,26.13,meteohub,2013-03-27 15:58:00,
2013-03-27 12:03:00,51.1,27.7,29.85,NW,310,0.0,0.0,40,0.00,,,26.13,meteohub,2013-03-27 16:03:00,
2013-03-27 12:08:00,50.9,29.8,29.85,NW,310,0.0,0.0,44,0.00,,,26.13,meteohub,2013-03-27 16:08:00,
2013-03-27 12:14:00,51.3,28.9,29.85,NW,310,0.0,0.0,42,0.00,,,26.13,meteohub,2013-03-27 16:14:00,
2013-03-27 12:19:00,50.9,26.2,29.85,NW,310,0.0,0.0,38,0.00,,,26.13,meteohub,2013-03-27 16:19:00,
2013-03-27 12:24:00,50.0,28.9,29.85,NW,310,0.0,0.0,44,0.00,,,26.13,meteohub,2013-03-27 16:24:00,
2013-03-27 12:29:00,51.3,27.7,29.85,NW,310,0.0,0.0,40,0.00,,,26.13,meteohub,2013-03-27 16:29:00,
2013-03-27 12:34:00,52.0,28.4,29.84,NW,310,0.0,0.0,40,0.00,,,26.13,meteohub,2013-03-27 16:34:00,
2013-03-27 12:39:00,51.4,27.3,29.84,NW,310,0.0,0.0,39,0.00,,,26.13,meteohub,2013-03-27 16:39:00,
2013-03-27 12:44:00,51.3,26.6,29.84,NW,310,0.0,0.0,38,0.00,,,26.13,meteohub,2013-03-27 16:44:00,
2013-03-27 12:49:00,51.4,26.6,29.84,NW,310,0.0,0.0,38,0.00,,,26.13,meteohub,2013-03-27 16:49:00,
2013-03-27 12:55:00,51.3,26.6,29.84,NW,310,0.0,0.0,38,0.24,,,26.37,meteohub,2013-03-27 16:55:00,
2013-03-27 13:00:00,51.1,26.4,29.84,NW,310,0.0,0.0,38,0.24,,,26.37,meteohub,2013-03-27 17:00:00,
2013-03-27 13:05:00,52.0,28.4,29.83,NW,310,0.0,0.0,40,0.71,,,28.20,meteohub,2013-03-27 17:05:00,
2013-03-27 13:10:00,52.2,27.9,29.83,NW,310,0.0,0.0,39,2.86,,,28.99,meteohub,2013-03-27 17:10:00,
2013-03-27 13:15:00,51.4,26.6,29.83,NW,310,0.0,0.0,38,3.19,,,29.32,meteohub,2013-03-27 17:15:00,
2013-03-27 13:20:00,52.0,26.6,29.83,NW,310,0.0,0.0,37,4.58,,,30.71,meteohub,2013-03-27 17:20:00,
2013-03-27 13:25:00,51.8,25.7,29.83,NW,310,0.0,0.0,36,4.58,,,30.71,meteohub,2013-03-27 17:25:00,
2013-03-27 13:30:00,52.2,27.9,29.83,NW,310,0.0,0.0,39,4.58,,,30.71,meteohub,2013-03-27 17:30:00,
2013-03-27 13:35:00,51.8,26.4,29.83,NW,310,0.0,0.0,37,4.58,,,30.71,meteohub,2013-03-27 17:35:00,
2013-03-27 13:40:00,51.1,25.0,29.83,NW,310,0.0,0.0,36,5.20,,,31.33,meteohub,2013-03-27 17:40:00,
2013-03-27 13:45:00,50.9,26.2,29.83,NW,310,0.0,0.0,38,6.52,,,32.68,meteohub,2013-03-27 17:45:00,
2013-03-27 13:51:00,51.3,25.2,29.82,NW,310,0.0,0.0,36,7.03,,,33.40,meteohub,2013-03-27 17:51:00,
2013-03-27 13:56:00,51.3,25.2,29.82,NW,310,0.0,0.0,36,8.45,,,34.88,meteohub,2013-03-27 17:56:00,
2013-03-27 14:01:00,51.3,26.6,29.82,NW,310,0.0,0.0,38,8.80,,,36.24,meteohub,2013-03-27 18:01:00,
2013-03-27 14:07:00,52.3,27.5,29.82,NW,310,0.0,0.0,38,8.37,,,36.96,meteohub,2013-03-27 18:07:00,
2013-03-27 14:12:00,52.7,26.4,29.81,NW,310,0.0,0.0,36,9.31,,,38.40,meteohub,2013-03-27 18:12:00,
2013-03-27 14:17:00,52.2,24.6,29.81,NW,310,0.0,0.0,34,9.40,,,39.24,meteohub,2013-03-27 18:17:00,
2013-03-27 14:22:00,51.3,24.6,29.81,NW,310,0.0,0.0,35,9.89,,,40.60,meteohub,2013-03-27 18:22:00,
2013-03-27 14:27:00,50.7,24.1,29.82,NW,310,0.0,0.0,35,11.37,,,42.08,meteohub,2013-03-27 18:27:00,
2013-03-27 14:32:00,50.5,25.2,29.81,NW,310,0.0,0.0,37,12.09,,,42.80,meteohub,2013-03-27 18:32:00,
2013-03-27 14:37:00,50.4,25.0,29.81,NW,310,0.0,0.0,37,13.57,,,44.28,meteohub,2013-03-27 18:37:00,
2013-03-27 14:42:00,50.4,25.0,29.81,NW,310,0.0,0.0,37,13.41,,,45.12,meteohub,2013-03-27 18:42:00,
2013-03-27 14:47:00,50.7,24.8,29.81,NW,310,0.0,0.0,36,13.56,,,46.48,meteohub,2013-03-27 18:47:00,
2013-03-27 14:52:00,50.7,24.8,29.81,NW,310,0.0,0.0,36,13.88,,,47.92,meteohub,2013-03-27 18:52:00,
2013-03-27 14:57:00,50.7,24.1,29.81,NW,310,0.0,0.0,35,13.44,,,48.68,meteohub,2013-03-27 18:57:00,
2013-03-27 15:02:00,50.5,25.2,29.81,NW,310,0.0,0.0,37,13.64,,,50.12,meteohub,2013-03-27 19:02:00,
2013-03-27 15:07:00,50.5,23.2,29.81,NW,310,0.0,0.0,34,13.32,,,50.88,meteohub,2013-03-27 19:07:00,
2013-03-27 15:13:00,51.3,24.6,29.81,NW,310,0.0,0.0,35,13.60,,,52.36,meteohub,2013-03-27 19:13:00,
2013-03-27 15:18:00,51.4,24.6,29.81,NW,310,0.0,0.0,35,13.84,,,53.80,meteohub,2013-03-27 19:18:00,
2013-03-27 15:23:00,51.4,24.1,29.81,NW,310,0.0,0.0,34,13.36,,,54.44,meteohub,2013-03-27 19:23:00,
2013-03-27 15:28:00,51.3,22.5,29.81,NW,310,0.0,0.0,32,13.56,,,55.88,meteohub,2013-03-27 19:28:00,
2013-03-27 15:33:00,52.0,24.4,29.81,NW,310,0.0,0.0,34,13.92,,,57.32,meteohub,2013-03-27 19:33:00,
2013-03-27 15:38:00,52.3,22.6,29.81,NW,310,0.0,0.0,31,13.52,,,58.04,meteohub,2013-03-27 19:38:00,
2013-03-27 15:43:00,52.3,22.6,29.81,NW,310,0.0,0.0,31,13.80,,,59.52,meteohub,2013-03-27 19:43:00,
2013-03-27 15:48:00,52.3,24.1,29.81,NW,310,0.0,0.0,33,13.28,,,60.24,meteohub,2013-03-27 19:48:00,
2013-03-27 15:53:00,52.9,23.0,29.81,NW,310,0.0,0.0,31,13.64,,,61.68,meteohub,2013-03-27 19:53:00,
2013-03-27 15:58:00,52.2,23.2,29.81,NW,310,0.0,0.0,32,13.84,,,63.12,meteohub,2013-03-27 19:58:00,
2013-03-27 16:03:00,51.4,23.4,29.81,NW,310,0.0,0.0,33,13.44,,,63.96,meteohub,2013-03-27 20:03:00,
2013-03-27 16:08:00,50.9,23.5,29.81,NW,310,0.0,0.0,34,13.84,,,65.44,meteohub,2013-03-27 20:08:00,
2013-03-27 16:14:00,51.3,25.2,29.82,NW,310,0.0,0.0,36,13.44,,,66.16,meteohub,2013-03-27 20:14:00,
2013-03-27 16:19:00,52.2,24.6,29.82,NW,310,0.0,0.0,34,13.60,,,67.52,meteohub,2013-03-27 20:19:00,
2013-03-27 16:24:00,52.7,25.2,29.81,NW,310,0.0,0.0,34,13.92,,,69.08,meteohub,2013-03-27 20:24:00,
2013-03-27 16:29:00,52.3,25.5,29.82,NW,310,0.0,0.0,35,13.44,,,69.80,meteohub,2013-03-27 20:29:00,
2013-03-27 16:34:00,52.2,24.6,29.82,NW,310,0.0,0.0,34,13.60,,,71.16,meteohub,2013-03-27 20:34:00,
2013-03-27 16:39:00,52.0,25.2,29.82,NW,310,0.0,0.0,35,13.84,,,71.88,meteohub,2013-03-27 20:39:00,
2013-03-27 16:44:00,52.2,25.3,29.82,NW,310,0.0,0.0,35,13.64,,,73.40,meteohub,2013-03-27 20:44:00,
2013-03-27 16:49:00,52.9,26.6,29.82,NW,310,0.0,0.0,36,13.92,,,74.88,meteohub,2013-03-27 20:49:00,
2013-03-27 16:54:00,52.7,27.9,29.83,NW,310,0.0,0.0,38,13.32,,,75.48,meteohub,2013-03-27 20:54:00,
2013-03-27 17:00:00,52.2,26.6,29.83,NW,310,0.0,0.0,37,13.60,,,76.96,meteohub,2013-03-27 21:00:00,
2013-03-27 17:05:00,52.0,25.9,29.83,NW,310,0.0,0.0,36,13.96,,,78.40,meteohub,2013-03-27 21:05:00,
2013-03-27 17:10:00,52.2,25.3,29.83,NW,310,0.0,0.0,35,13.44,,,80.68,meteohub,2013-03-27 21:10:00,
2013-03-27 17:15:00,52.2,25.3,29.83,NW,310,0.0,0.0,35,13.76,,,81.40,meteohub,2013-03-27 21:15:00,
2013-03-27 17:20:00,52.0,25.2,29.83,NW,310,0.0,0.0,35,13.56,,,82.76,meteohub,2013-03-27 21:20:00,
2013-03-27 17:25:00,51.8,25.0,29.83,NW,310,0.0,0.0,35,13.84,,,84.24,meteohub,2013-03-27 21:25:00,
2013-03-27 17:30:00,51.4,24.6,29.83,NW,310,0.0,0.0,35,13.56,,,85.08,meteohub,2013-03-27 21:30:00,
2013-03-27 17:35:00,51.4,24.6,29.83,NW,310,0.0,0.0,35,13.72,,,86.40,meteohub,2013-03-27 21:35:00,
2013-03-27 17:40:00,51.4,24.6,29.83,NW,310,0.0,0.0,35,12.52,,,86.40,meteohub,2013-03-27 21:40:00,
2013-03-27 17:45:00,51.1,24.4,29.83,NW,310,0.0,0.0,35,12.36,,,87.48,meteohub,2013-03-27 21:45:00,
2013-03-27 17:51:00,50.9,24.8,29.83,NW,310,0.0,0.0,36,12.76,,,88.96,meteohub,2013-03-27 21:51:00,
2013-03-27 17:56:00,51.1,24.4,29.84,NW,310,0.0,0.0,35,12.24,,,89.68,meteohub,2013-03-27 21:56:00,
2013-03-27 18:01:00,51.1,24.4,29.84,NW,310,0.0,0.0,35,12.52,,,91.16,meteohub,2013-03-27 22:01:00,
2013-03-27 18:06:00,50.5,24.6,29.84,NW,310,0.0,0.0,36,12.76,,,92.48,meteohub,2013-03-27 22:06:00,
2013-03-27 18:11:00,50.2,24.3,29.84,NW,310,0.0,0.0,36,12.28,,,93.20,meteohub,2013-03-27 22:11:00,
2013-03-27 18:17:00,49.8,24.6,29.85,NW,310,0.0,0.0,37,12.76,,,94.80,meteohub,2013-03-27 22:17:00,
2013-03-27 18:22:00,49.6,24.4,29.84,NW,310,0.0,0.0,37,12.24,,,95.52,meteohub,2013-03-27 22:22:00,
2013-03-27 18:27:00,49.3,24.8,29.85,NW,310,0.0,0.0,38,11.20,,,95.68,meteohub,2013-03-27 22:27:00,
2013-03-27 18:32:00,48.9,24.4,29.85,NW,310,0.0,0.0,38,10.12,,,95.68,meteohub,2013-03-27 22:32:00,
2013-03-27 18:37:00,48.7,24.8,29.85,NW,310,0.0,0.0,39,9.28,,,95.68,meteohub,2013-03-27 22:37:00,
2013-03-27 18:42:00,48.6,24.8,29.85,NW,310,0.0,0.0,39,8.92,,,95.68,meteohub,2013-03-27 22:42:00,
2013-03-27 18:47:00,48.4,23.9,29.85,NW,310,0.0,0.0,38,7.68,,,95.68,meteohub,2013-03-27 22:47:00,
2013-03-27 18:52:00,48.6,22.1,29.85,NW,310,0.0,0.0,35,6.48,,,95.68,meteohub,2013-03-27 22:52:00,
2013-03-27 18:57:00,48.6,22.1,29.85,NW,310,0.0,0.0,35,5.48,,,95.68,meteohub,2013-03-27 22:57:00,
2013-03-27 19:02:00,48.6,22.1,29.86,NW,310,0.0,0.0,35,4.28,,,95.68,meteohub,2013-03-27 23:02:00,
2013-03-27 19:07:00,48.4,21.4,29.86,NW,310,0.0,0.0,34,3.08,,,95.68,meteohub,2013-03-27 23:07:00,
2013-03-27 19:12:00,48.4,21.9,29.86,NW,310,0.0,0.0,35,1.88,,,95.68,meteohub,2013-03-27 23:12:00,
2013-03-27 19:17:00,48.4,21.9,29.86,NW,310,0.0,0.0,35,0.64,,,95.68,meteohub,2013-03-27 23:17:00,
2013-03-27 19:22:00,48.2,21.7,29.86,NW,310,0.0,0.0,35,0.00,,,95.68,meteohub,2013-03-27 23:22:00,
2013-03-27 19:27:00,48.0,22.3,29.87,NW,310,0.0,0.0,36,0.00,,,95.68,meteohub,2013-03-27 23:27:00,
2013-03-27 19:33:00,47.8,24.1,29.87,NW,310,0.0,0.0,39,0.00,,,95.68,meteohub,2013-03-27 23:33:00,
2013-03-27 19:38:00,47.5,25.0,29.88,NW,310,0.0,0.0,41,0.00,,,95.68,meteohub,2013-03-27 23:38:00,
2013-03-27 19:43:00,47.1,25.7,29.88,NW,310,0.0,0.0,43,0.00,,,95.68,meteohub,2013-03-27 23:43:00,
2013-03-27 19:48:00,47.1,26.2,29.88,NW,310,0.0,0.0,44,0.00,,,95.68,meteohub,2013-03-27 23:48:00,
2013-03-27 19:53:00,46.9,26.2,29.88,NW,310,0.0,0.0,44,0.00,,,95.68,meteohub,2013-03-27 23:53:00,
2013-03-27 19:58:00,46.8,26.1,29.88,NW,310,0.0,0.0,44,0.00,,,95.68,meteohub,2013-03-27 23:58:00,
2013-03-27 20:03:00,46.6,26.4,29.89,NW,310,0.0,0.0,45,0.00,,,95.68,meteohub,2013-03-28 00:03:00,
2013-03-27 20:08:00,46.6,27.0,29.89,NW,310,0.0,0.0,46,0.00,,,0.00,meteohub,2013-03-28 00:08:00,
2013-03-27 20:13:00,46.2,27.1,29.89,NW,310,0.0,0.0,47,0.00,,,0.00,meteohub,2013-03-28 00:13:00,
2013-03-27 20:19:00,46.0,27.5,29.89,NW,310,0.0,0.0,48,0.00,,,0.00,meteohub,2013-03-28 00:19:00,
2013-03-27 20:24:00,46.0,27.9,29.89,NW,310,0.0,0.0,49,0.00,,,0.00,meteohub,2013-03-28 00:24:00,
2013-03-27 20:29:00,45.9,28.2,29.89,NW,310,0.0,0.0,50,0.00,,,0.00,meteohub,2013-03-28 00:29:00,
2013-03-27 20:34:00,45.7,28.0,29.90,NW,310,0.0,0.0,50,0.00,,,0.00,meteohub,2013-03-28 00:34:00,
2013-03-27 20:39:00,45.5,27.9,29.90,NW,310,0.0,0.0,50,0.00,,,0.00,meteohub,2013-03-28 00:39:00,
2013-03-27 20:44:00,45.5,28.4,29.90,NW,310,0.0,0.0,51,0.00,,,0.00,meteohub,2013-03-28 00:44:00,
2013-03-27 20:49:00,45.3,28.2,29.90,NW,310,0.0,0.0,51,0.00,,,0.00,meteohub,2013-03-28 00:49:00,
2013-03-27 20:54:00,45.3,28.2,29.90,NW,310,0.0,0.0,51,0.00,,,0.00,meteohub,2013-03-28 00:54:00,
2013-03-27 20:59:00,45.3,28.2,29.91,NW,310,0.0,0.0,51,0.00,,,0.00,meteohub,2013-03-28 00:59:00,
2013-03-27 21:04:00,45.3,28.2,29.91,NW,310,0.0,0.0,51,0.00,,,0.00,meteohub,2013-03-28 01:04:00,
2013-03-27 21:10:00,45.3,28.2,29.91,NW,310,0.0,0.0,51,0.00,,,0.00,meteohub,2013-03-28 01:10:00,
2013-03-27 21:15:00,45.1,28.0,29.91,NW,310,0.0,0.0,51,0.00,,,0.00,meteohub,2013-03-28 01:15:00,
2013-03-27 21:20:00,45.1,28.0,29.91,NW,310,0.0,0.0,51,0.00,,,0.00,meteohub,2013-03-28 01:20:00,
2013-03-27 21:25:00,45.0,27.5,29.91,NW,310,0.0,0.0,50,0.00,,,0.00,meteohub,2013-03-28 01:25:00,
2013-03-27 21:30:00,45.0,27.9,29.92,NW,310,0.0,0.0,51,0.00,,,0.00,meteohub,2013-03-28 01:30:00,
2013-03-27 21:35:00,45.0,27.9,29.91,NW,310,0.0,0.0,51,0.00,,,0.00,meteohub,2013-03-28 01:35:00,
2013-03-27 21:40:00,44.8,27.7,29.91,NW,310,0.0,0.0,51,0.00,,,0.00,meteohub,2013-03-28 01:40:00,
2013-03-27 21:45:00,44.8,27.7,29.91,NW,310,0.0,0.0,51,0.00,,,0.00,meteohub,2013-03-28 01:45:00,
2013-03-27 21:50:00,44.8,27.7,29.91,NW,310,0.0,0.0,51,0.00,,,0.00,meteohub,2013-03-28 01:50:00,
2013-03-27 21:55:00,44.6,28.0,29.91,NW,310,0.0,0.0,52,0.00,,,0.00,meteohub,2013-03-28 01:55:00,
2013-03-27 22:00:00,44.8,27.7,29.91,NW,310,0.0,0.0,51,0.00,,,0.00,meteohub,2013-03-28 02:00:00,
2013-03-27 22:05:00,44.4,27.9,29.91,NW,310,0.0,0.0,52,0.00,,,0.00,meteohub,2013-03-28 02:05:00,
2013-03-27 22:11:00,44.2,27.7,29.91,NW,310,0.0,0.0,52,0.00,,,0.00,meteohub,2013-03-28 02:11:00,
2013-03-27 22:16:00,44.2,28.2,29.92,NW,310,0.0,0.0,53,0.00,,,0.00,meteohub,2013-03-28 02:16:00,
2013-03-27 22:21:00,44.1,28.0,29.92,NW,310,0.0,0.0,53,0.00,,,0.00,meteohub,2013-03-28 02:21:00,
2013-03-27 22:26:00,43.9,27.9,29.92,NW,310,0.0,0.0,53,0.00,,,0.00,meteohub,2013-03-28 02:26:00,
2013-03-27 22:31:00,43.5,28.0,29.92,NW,310,0.0,0.0,54,0.00,,,0.00,meteohub,2013-03-28 02:31:00,
2013-03-27 22:37:00,43.3,27.9,29.92,NW,310,0.0,0.0,54,0.00,,,0.00,meteohub,2013-03-28 02:37:00,
2013-03-27 22:42:00,43.3,27.9,29.92,NW,310,0.0,0.0,54,0.00,,,0.00,meteohub,2013-03-28 02:42:00,
2013-03-27 22:47:00,43.2,27.7,29.92,NW,310,0.0,0.0,54,0.00,,,0.00,meteohub,2013-03-28 02:47:00,
2013-03-27 22:52:00,43.2,27.7,29.92,NW,310,0.0,0.0,54,0.00,,,0.00,meteohub,2013-03-28 02:52:00,
2013-03-27 22:57:00,43.0,27.5,29.92,NW,310,0.0,0.0,54,0.00,,,0.00,meteohub,2013-03-28 02:57:00,
2013-03-27 23:02:00,43.0,27.5,29.92,NW,310,0.0,0.0,54,0.00,,,0.00,meteohub,2013-03-28 03:02:00,
2013-03-27 23:07:00,43.0,27.5,29.92,NW,310,0.0,0.0,54,0.00,,,0.00,meteohub,2013-03-28 03:07:00,
2013-03-27 23:12:00,43.0,27.9,29.92,NW,310,0.0,0.0,55,0.00,,,0.00,meteohub,2013-03-28 03:12:00,
2013-03-27 23:17:00,42.8,27.7,29.92,NW,310,0.0,0.0,55,0.00,,,0.00,meteohub,2013-03-28 03:17:00,
2013-03-27 23:22:00,42.6,27.5,29.92,NW,310,0.0,0.0,55,0.00,,,0.00,meteohub,2013-03-28 03:22:00,
2013-03-27 23:27:00,42.4,27.5,29.92,NW,310,0.0,0.0,55,0.00,,,0.00,meteohub,2013-03-28 03:27:00,
2013-03-27 23:32:00,42.3,27.7,29.92,NW,310,0.0,0.0,56,0.00,,,0.00,meteohub,2013-03-28 03:32:00,
2013-03-27 23:37:00,42.1,27.5,29.92,NW,310,0.0,0.0,56,0.00,,,0.00,meteohub,2013-03-28 03:37:00,
2013-03-27 23:42:00,41.7,27.7,29.92,NW,310,0.0,0.0,57,0.00,,,0.00,meteohub,2013-03-28 03:42:00,
2013-03-27 23:47:00,41.5,27.5,29.92,NW,310,0.0,0.0,57,0.00,,,0.00,meteohub,2013-03-28 03:47:00,
2013-03-27 23:52:00,41.4,27.7,29.92,NW,310,0.0,0.0,58,0.00,,,0.00,meteohub,2013-03-28 03:52:00,
2013-03-27 23:57:00,41.2,27.9,29.92,NW,310,0.0,0.0,59,0.00,,,0.00,meteohub,2013-03-28 03:57:00,